e-st@r-II
1 41459U 16025D 18319.73978533 .00001490 00000-0 81313-4 0 9998
2 41459 98.1213 30.3750 0168698 0.7207 359.4214 15.04840667140218
AAUSAT4
1 41460U 16025E 18319.76447045 .00000895 00000-0 49927-4 0 9995
2 41460 98.1164 31.1660 0159989 355.4585 4.5171 15.06449721140304
LO-87
1 41557U 16033B 18319.96613007 .00001133 00000-0 45376-4 0 9996
2 41557 97.4309 43.6746 0012338 341.3773 18.7012 15.27094662137328
NuSat2
1 41558U 16033C 18319.93732927 .00001227 00000-0 46824-4 0 9990
2 41558 97.4330 44.0150 0012578 346.5958 13.4945 15.28538549137320
Lapan A3
1 41603U 16040E 18319.86233709 .00000035 00000-0 48055-5 0 9990
2 41603 97.3934 18.4709 0015208 72.5692 47.8241 15.19631950133112
Swayam
1 41607U 16040J 18319.88234472 .00001501 00000-0 67285-4 0 9998
2 41607 97.3959 20.6477 0015183 69.2925 290.9937 15.22680311133183
Pratham
1 41783U 16059A 18319.90856287 .00000050 00000-0 19050-4 0 9995
2 41783 98.0996 18.8689 0033066 341.2947 18.7037 14.62955410114148
AlSat 1N
1 41789U 16059G 18319.80628353 .00000094 00000-0 26980-4 0 9999
2 41789 98.1014 20.3062 0027782 333.1187 26.8565 14.64194694114207
ScatSat
1 41790U 16059H 18319.62151039 .00000010 00000-0 13695-4 0 9990
2 41790 098.2413 004.5141 0018059 351.0099 009.0770 14.50880229113147
TY-1
1 41844U 16066D 18319.86504543 .00001638 00000-0 71076-4 0 9990
2 41844 97.4069 324.8670 0013844 219.9857 235.9932 15.23701969111974
Pegasus-1
1 41846U 16066F 18319.66113801 .00000276 00000-0 51864-4 0 9993
2 41846 98.7403 351.1322 0368527 157.1516 204.6553 14.37438752105667
CAS-2T
1 41847U 16066G 18319.94675055 .00000023 00000-0 13630-4 0 9998
2 41847 98.7356 351.9208 0366690 153.4088 208.6436 14.37936056106135
TO-89
1 41932U 98067KU 18319.25333586 .00100679 15122-4 27289-3 0 9995
2 41932 51.6259 274.6887 0006124 91.9817 268.1891 15.94123404104697
EO-88
1 42017U 17008BX 18319.83370458 .00001608 00000-0 67540-4 0 9991
2 42017 97.4317 23.8865 0005876 192.0171 168.0927 15.24897129 97171
HAVELSAT
1 42700U 98067LH 18319.93824458 .00061789 00000-0 27906-3 0 9996
2 42700 51.6273 292.9686 0005580 94.7233 265.4408 15.83375344 85956
SOMP2
1 42701U 98067LJ 18319.93979175 .00047027 00000-0 23814-3 0 9997
2 42701 51.6335 296.0579 0005388 85.9931 274.1687 15.81032734 85907
PHOENIX
1 42706U 98067LP 18319.80191226 .00032357 00000-0 19905-3 0 9997
2 42706 51.6289 299.6649 0003154 57.9262 302.2044 15.76902226 85762
X-CubeSat
1 42707U 98067LQ 18319.93453784 .00076411 00000-0 30532-3 0 9990
2 42707 51.6279 291.3416 0004911 75.8319 284.3230 15.85861688 85872
qbee
1 42708U 98067LR 18319.89587915 .00061147 00000-0 28119-3 0 9998
2 42708 51.6286 294.2061 0004056 78.4739 281.6719 15.83006001 85795
ZA-AeroSat
1 42713U 98067LU 18319.97018452 .00029392 00000-0 19384-3 0 9998
2 42713 51.6340 303.0458 0003859 55.7744 304.3620 15.75361614 85390
UPSat
1 42716U 98067LX 18316.95463152 .25568573 12659-4 27921-3 0 9996
2 42716 51.6101 291.3881 0002187 209.9477 150.8621 16.50348000 85401
SpaceCube
1 42717U 98067LY 18319.36766804 .00051282 00000-0 23928-3 0 9998
2 42717 51.6240 297.3464 0004989 89.2392 270.9182 15.82762301 84780
Hoopoe
1 42718U 98067LZ 18319.91882386 .00151967 20049-4 40675-3 0 9992
2 42718 51.6237 285.9157 0006237 95.4364 264.7355 15.94143587 84982
NJUST-1
1 42722U 98067MB 18319.84350306 .00029037 00000-0 20663-3 0 9999
2 42722 51.6361 306.5981 0006564 80.4251 348.5849 15.73584663 84409
UNSW-EC0
1 42723U 98067MC 18319.89587096 .00317779 54959-4 53801-3 0 9992
2 42723 51.6353 283.6340 0007392 102.0540 258.1299 16.02091433 84694
LO-90
1 42725U 98067ME 18319.96361340 .00052406 00000-0 28360-3 0 9993
2 42725 51.6370 299.1758 0006085 77.4095 315.4873 15.79525750 84421
nSIGHT1
1 42726U 98067MF 18319.98460699 .00010631 00000-0 11310-3 0 9994
2 42726 51.6387 320.6142 0005886 78.4479 281.7177 15.64624196 84141
SNUSAT 1B
1 42727U 98067MG 18319.97555083 .00042755 00000-0 23447-3 0 9992
2 42727 51.6321 299.2383 0007015 64.4962 295.6764 15.79313348 84388
QBITO
1 42728U 98067MH 18319.90660217 .00073339 00000-0 32024-3 0 9995
2 42728 51.6326 294.3890 0005068 84.7727 275.3855 15.84025161 84287
Aalto-2
1 42729U 98067MJ 18319.19967927 .00086404 00000-0 35651-3 0 9991
2 42729 51.6273 297.0201 0004968 80.6392 279.5173 15.85148559 84193
SUSat
1 42730U 98067MK 18319.94040890 .00046004 00000-0 23924-3 0 9999
2 42730 51.6336 297.5522 0004659 81.3335 278.8195 15.80466980 84246
i-INSPIRE II
1 42731U 98067ML 18319.14005610 .00591947 18841-3 67704-3 0 9993
2 42731 51.6272 285.1618 0006500 103.0418 257.1322 16.08420155 84388
PolyITAN-2-SAU
1 42732U 98067MM 18319.96875623 .00075945 00000-0 30941-3 0 9996
2 42732 51.6295 292.3925 0006724 64.9179 295.2522 15.85446505 84366
ExAlta-1
1 42734U 98067MP 18318.24538221 .12474274 12505-4 35882-3 0 9995
2 42734 51.6055 286.4142 0002642 166.4742 193.6358 16.45390460 84235
Aoxiang-1
1 42735U 98067MQ 18319.82939509 .00030510 00000-0 21055-3 0 9993
2 42735 51.6355 305.7052 0007043 76.8688 355.7450 15.74269006 85548
BeEagleSat
1 42736U 98067MR 18319.91783338 .00036437 00000-0 21647-3 0 9992
2 42736 51.6323 301.1554 0006787 78.6250 281.5512 15.77606117 84309
CAS-4B
1 42759U 17034B 18319.87536152 .00000322 00000-0 33334-4 0 9998
2 42759 43.0199 330.4569 0011007 333.4057 89.8154 15.09421454 78374
CAS-4A
1 42761U 17034D 18319.91717375 .00000240 00000-0 28244-4 0 9997
2 42761 43.0208 329.8961 0011600 335.6662 96.2040 15.09497411 78373
UCLSat
1 42765U 17036A 18319.35426561 .00001289 00000-0 59086-4 0 9997
2 42765 97.3828 16.6427 0010032 265.7222 94.2868 15.22218904 77703
NIUSat
1 42766U 17036B 18319.16366453 .00001066 00000-0 51540-4 0 9990
2 42766 97.3829 15.3942 0014311 253.9856 105.9803 15.20692079 77479
LituanicaSAT 2
1 42768U 17036D 18319.44843514 .00001869 00000-0 84832-4 0 9992
2 42768 97.3852 16.2896 0013923 253.9698 106.0005 15.21960963 77564
Aalto 1
1 42775U 17036L 18319.88558970 .00000724 00000-0 35705-4 0 9991
2 42775 97.3819 16.3726 0012591 251.1913 108.7957 15.20992657 77556
URSA MAIOR
1 42776U 17036M 18319.33691291 .00000883 00000-0 42757-4 0 9997
2 42776 97.3826 15.9204 0012381 253.4294 106.5582 15.21095987 77477
Max Valier Sat
1 42778U 17036P 18319.90879478 .00000968 00000-0 45887-4 0 9998
2 42778 97.3856 16.9726 0010953 255.7973 104.2046 15.21610501 77570
Pegasus
1 42784U 17036V 18319.60862156 .00001177 00000-0 54543-4 0 9999
2 42784 097.3831 016.7790 0010568 264.8041 095.1989 15.22009155077547
NUDATSat
1 42787U 17036Y 18319.92236196 .00001597 00000-0 71370-4 0 9999
2 42787 97.3863 17.4568 0010363 271.7044 88.3014 15.22737712 77459
SUCHAI 1
1 42788U 17036Z 18319.40490565 .00001371 00000-0 62436-4 0 9998
2 42788 97.3834 16.7484 0010175 265.1991 94.8083 15.22336994 77596
SKCUBE
1 42789U 17036AA 18319.34356376 .00001271 00000-0 58211-4 0 9998
2 42789 097.3831 016.6666 0010022 265.4425 094.5666 15.22272750077505
VZLUSAT 1
1 42790U 17036AB 18319.45008939 .00001708 00000-0 76100-4 0 9993
2 42790 097.3840 016.9958 0009664 264.6565 095.3569 15.22751347077538
